Location: Alsip
(41.6689°N, 87.7387°W)
Time: 15:19:00
(UTC+00:00)

SL-16 R/B - Pass Details

Date: 14 July 2020
Orbit: 985 x 1007 km, 99.5° (Epoch: 13 August)

Event Time Altitude Azimuth Distance (km) Brightness Sun altitude
Exits shadow 07:12:18 31° 142° (SE) 1,688 3.4 -24.4°
Maximum altitude 07:15:23 64° 71° (ENE) 1,103 2.8 -24.2°
Drops below altitude 10° 07:21:34 10° 351° (N) 2,790 5.7 -23.8°
Sets 07:24:05 0° 349° (N) 3,745 6.5 -23.6°
